User: anonymous   Login
Location: Unspecified
(0.0000°N, 0.0000°E)
Time: 08:02:29
(UTC+02:00)
Language:

Helios 1A Rocket - Orbit

View from above orbital plane
View from above orbital plane
View from above satellite
View from above satellite

Ground track
Ground track

The orbit data is extracted from the following two-line orbital elements,

1 23608U 95033D   15185.83476801  .00001909  00000-0  18140-3 0  9992
2 23608 098.2467 072.0899 0019026 085.9816 274.3578 14.94663968 81132
Epoch (UTC): 04 July 2015 20:02:03
Eccentricity: 0.0019026
inclination: 98.2467°
perigee height: 570 km
apogee height: 596 km
right ascension of ascending node: 72.0899°
argument of perigee: 85.9816°
revolutions per day: 14.94663968
mean anomaly at epoch: 274.3578°
orbit number at epoch: 8113

The dashed part of the orbit path shows where the satellite is in the earth's shadow,  

DLR